Alturas, CA

3:33 AM PDT on May 27, 2018 (GMT -0700)
Alturas Municipal

Weather History for KAAT - April, 2014

Change the Weather History Date:

Monday, April 21, 2014

  Actual Average Record
Temperature  
Mean Temperature 48 °F 44 °F  
Max Temperature 66 °F 59 °F 83 °F (2009)
Min Temperature 30 °F 30 °F 15 °F (1967)
Degree Days  
Heating Degree Days 17 20  
Month to date heating degree days 363 481  
Since 1 July heating degree days 5872 6173  
Cooling Degree Days 0 0  
Month to date cooling degree days 0 0  
Year to date cooling degree days 0 0  
Moisture  
Dew Point 28 °F    
Average Humidity 52    
Maximum Humidity 78    
Minimum Humidity 25    
Precipitation  
Precipitation 0.00 in 0.06 in 0.59 in (1983)
Month to date precipitation 0.20 1.07  
Year to date precipitation 3.96 5.69  
Sea Level Pressure  
Sea Level Pressure 29.98 in    
Wind  
Wind Speed 8 mph (SW)    
Max Wind Speed 26 mph    
Max Gust Speed 32 mph    
Visibility 10 miles    
Events      
T = Trace of Precipitation, MM = Missing Value Source: NWS Daily Summary

Daily Weather History Graph

Daily Weather History Graph

Search for Another Location

Airport or City:

Astronomy

Apr. 21, 2014 Rise Set
Actual Time 6:13 AM PDT 7:49 PM PDT
Civil Twilight 5:44 AM PDT 8:18 PM PDT
Nautical Twilight 5:08 AM PDT 8:54 PM PDT
Astronomical Twilight 4:31 AM PDT 9:31 PM PDT
Moon 1:24 AM PDT (4/21) 11:44 AM PDT (4/21)
Length of Visible Light 14h 34m
Length of Day
13h 36m
Waning Gibbous, 56% of the Moon is Illuminated
Apr 21
Waning Gibbous
Apr 22
Last Quarter
Apr 28
New
May 6
First Quarter
May 14
Full

Hourly Weather History & Observations

Time (PDT) Temp. Dew Point Humidity Pressure Visibility Wind Dir Wind Speed Gust Speed Precip Events Conditions
12:55 AM 36.0 °F 26.1 °F 67% 30.12 in 10.0 mi Calm Calm - N/A   Clear
1:55 AM 36.0 °F 24.1 °F 62% 30.09 in 10.0 mi Calm Calm - N/A   Clear
2:55 AM 30.9 °F 25.0 °F 79% 30.08 in 10.0 mi Calm Calm - N/A   Clear
3:55 AM 32.0 °F 26.1 °F 79% 30.07 in 10.0 mi Calm Calm - N/A   Clear
4:55 AM 32.0 °F 24.1 °F 73% 30.06 in 10.0 mi Calm Calm - N/A   Clear
5:55 AM 33.1 °F 25.0 °F 72% 30.05 in 10.0 mi Calm Calm - N/A   Clear
6:55 AM 33.1 °F 27.0 °F 78% 30.05 in 10.0 mi Calm Calm - N/A   Clear
7:55 AM 42.1 °F 28.9 °F 60% 30.05 in 10.0 mi Calm Calm - N/A   Partly Cloudy
8:55 AM 48.0 °F 28.0 °F 46% 30.05 in 10.0 mi Calm Calm - N/A   Partly Cloudy
9:55 AM 52.0 °F 28.9 °F 41% 30.04 in 10.0 mi Calm Calm - N/A   Clear
10:55 AM 57.0 °F 28.0 °F 33% 30.02 in 10.0 mi Calm Calm - N/A   Clear
11:55 AM 60.1 °F 28.0 °F 30% 30.01 in 10.0 mi Calm Calm - N/A   Partly Cloudy
12:55 PM 64.0 °F 30.0 °F 28% 29.98 in 10.0 mi SSW 10.4 mph - N/A   Scattered Clouds
1:55 PM 63.0 °F 28.0 °F 27% 29.96 in 10.0 mi SW 20.7 mph 27.6 mph N/A   Partly Cloudy
2:55 PM 63.0 °F 27.0 °F 26% 29.97 in 10.0 mi SW 18.4 mph 28.8 mph N/A   Clear
3:55 PM 62.1 °F 28.0 °F 28% 29.95 in 10.0 mi WSW 17.3 mph 28.8 mph N/A   Mostly Cloudy
4:55 PM 64.0 °F 28.0 °F 26% 29.91 in 10.0 mi SW 17.3 mph 27.6 mph N/A   Partly Cloudy
5:55 PM 61.0 °F 26.1 °F 26% 29.90 in 10.0 mi South 20.7 mph 27.6 mph N/A   Overcast
6:55 PM 57.0 °F 28.0 °F 33% 29.92 in 10.0 mi WSW 21.9 mph 28.8 mph N/A   Mostly Cloudy
7:55 PM 52.0 °F 30.9 °F 45% 29.86 in 10.0 mi West 12.7 mph - N/A   Overcast
8:55 PM 51.1 °F 30.9 °F 46% 29.86 in 10.0 mi SW 9.2 mph - N/A   Overcast
9:55 PM 48.0 °F 33.1 °F 56% 29.89 in 10.0 mi WSW 11.5 mph - N/A   Overcast
10:55 PM 48.0 °F 30.9 °F 52% 29.83 in 10.0 mi WSW 8.1 mph - N/A   Overcast
11:55 PM 46.9 °F 30.9 °F 54% 29.80 in 10.0 mi South 4.6 mph - N/A   Overcast